{"data":{"norad_id":53890,"intl_designator":"2022-119E","name":"STARLINK-5050","alt_names":[],"object_type":"PAYLOAD","status":"ACTIVE","operator":null,"country":"US","launch_date":"2022-09-24","launch_site_code":"AFETR","launch_vehicle":null,"mission":null,"orbit_class":"UNKNOWN","rcs_meters":null,"size_class":null,"mass_kg":null,"dimensions":null,"purposes":["comms"],"wikipedia_slug":null,"has_3d_model":false,"image_url":null,"decayed_at":null,"tle_current":{"epoch":"2026-09-20T00:02:53.884320Z","epoch_age_seconds":127143,"freshness":"FRESH","line1":"1 53890U 22119E   26263.00201255 -.00000134  00000+0  74352-5 0  9998","line2":"2 53890  53.1577 126.0814 0001161  97.6451 262.4682 15.31705315221655","mean_motion":15.31705315,"eccentricity":0.0001161,"inclination_deg":53.1577,"raan_deg":126.0814,"arg_perigee_deg":97.6451,"mean_anomaly_deg":262.4682,"bstar":7.4352e-6,"rev_number":22165,"period_min":94.012861736397,"perigee_km":469.92899875334,"apogee_km":471.51930431273,"semimajor_km":6848.861151533,"source":"CELESTRAK","updated_at":"2026-09-21T09:00:33.028447Z"}}}